User: anonymous   Login
Location: Laguna de la Cañada del Gallo
(40.3974°N, 5.2096°W)
Time: 19:54:05
(UTC+00:00)
Language:

CSL-04 Debris - Orbit

View from above orbital plane
View from above orbital plane
View from above satellite
View from above satellite

Ground track
Ground track

The orbit data is extracted from the following two-line orbital elements,

1 25733U 99025D   24171.73272216  .00000585  00000-0  30848-3 0  9994
2 25733  98.7736 215.8946 0015976 108.1823 252.1093 14.17655234296892
Epoch (UTC): 19 June 2024 17:35:07
Eccentricity: 0.0015976
inclination: 98.7736°
perigee height: 822 km
apogee height: 845 km
right ascension of ascending node: 215.8946°
argument of perigee: 108.1823°
revolutions per day: 14.17655234
mean anomaly at epoch: 252.1093°
orbit number at epoch: 29689

The dashed part of the orbit path shows where the satellite is in the earth's shadow,  

DLR